Wetbulb
59.20 59.26 59.34 59.51 59.92 60.42 60.61 60.68 61.18 59.20 53.11 51.15 56.52 56.59 55.44 54.86 55.02 55.86 54.30 55.68 55.04 52.06 52.54 50.35 52.21 50.99 48.16 49.77
59.15 59.05 59.08 59.23 59.67 60.02 60.40 61.06 61.01 57.28 50.29 54.76 57.15 54.26 55.44 54.53 56.06 56.87 56.88 56.81 56.95 54.24 51.77 52.92 50.04 48.33 48.49 46.30
58.82 58.60 58.35 58.97 59.53 60.33 60.99 61.50 57.73 53.76 48.61 59.01 52.42 53.96 54.83 52.93 54.83 55.86 56.81 56.06 55.74 52.79 52.22 49.03 47.13 47.58 44.22 44.74
58.01 57.71 58.18 58.31 59.35 60.09 58.86 58.65 55.77 50.82 51.21 49.19 52.44 53.04 54.70 54.47 53.01 53.81 53.81 53.69 52.95 50.06 49.76 47.87 42.25 43.03 43.74 44.47
57.26 56.98 56.99 56.84 54.03 52.37 53.92 49.17 49.47 49.01 50.04 53.39 54.20 53.44 54.38 53.04 52.96 52.07 48.38 50.59 48.42 46.10 46.88 47.43 46.60 46.03 45.03 44.29
56.58 56.78 57.44 54.22 52.06 54.85 49.51 52.41 51.77 52.02 53.12 53.50 50.18 53.32 54.85 50.15 49.55 47.26 48.39 48.27 45.99 47.70 47.72 47.36 46.50 45.92 44.62 44.64
56.49 56.46 56.96 55.48 58.73 56.40 50.35 50.27 52.03 51.22 52.35 52.76 49.90 51.16 52.73 50.63 48.48 46.84 47.12 46.03 47.09 47.90 47.00 46.21 45.35 45.49 44.12 43.60
55.16 57.83 55.91 58.01 59.16 56.60 46.73 46.06 49.04 51.34 52.27 52.95 49.47 52.46 51.86 50.93 49.32 46.50 47.00 46.84 47.56 46.54 46.24 45.07 45.83 43.08 45.05 44.36
57.20 55.39 56.42 59.34 58.70 56.02 37.90 46.92 49.13 54.72 52.55 50.28 50.57 50.56 50.62 51.69 47.39 47.26 47.39 45.12 45.10 45.18 44.84 45.07 46.30 44.32 44.75 43.48
58.14 56.40 58.06 57.89 56.21 44.97 37.73 45.36 49.23 48.42 48.59 48.75 48.01 49.74 48.27 50.24 48.50 46.51 47.30 45.72 47.89 46.17 46.08 46.03 45.36 44.56 42.89 42.28
55.06 57.71 58.00 55.88 44.85 40.28 46.45 44.42 45.31 47.45 46.98 45.41 45.41 46.63 44.32 43.08 43.38 41.54 42.37 43.85 44.25 44.79 45.58 43.55 44.69 43.85 41.55 38.75
56.68 57.04 56.49 49.51 39.95 42.18 44.00 45.88 45.63 46.09 44.71 43.96 44.16 44.78 43.71 42.29 40.70 40.76 41.77 40.55 38.99 42.47 42.97 42.95 41.45 41.21 40.56 38.25
54.46 56.78 52.59 43.45 42.88 43.90 44.83 44.59 44.74 43.59 43.57 42.17 42.32 43.02 42.63 41.70 39.93 39.78 39.01 38.98 37.68 40.66 40.85 42.18 42.25 40.33 39.33 41.26
53.82 55.87 49.53 43.81 43.64 42.45 43.09 43.37 43.30 43.13 41.54 42.89 40.46 40.85 40.59 41.70 39.03 39.28 40.91 38.24 36.10 38.18 39.82 41.46 41.69 40.82 41.88 37.33
53.17 52.74 45.49 43.94 41.48 42.24 43.35 42.57 43.26 41.63 42.42 41.96 40.65 39.96 39.11 40.26 41.50 38.40 40.01 38.85 36.39 36.11 38.26 38.56 39.27 38.70 38.71 38.05
48.78 46.38 46.14 41.83 42.46 41.38 43.20 41.92 42.65 41.76 41.41 39.67 38.76 38.71 38.53 40.17 40.61 39.95 37.01 37.99 37.34 36.00 36.60 37.63 38.65 38.59 37.88 39.22
45.27 44.74 41.23 40.00 40.85 40.38 40.27 40.39 39.81 40.35 40.12 38.91 37.26 38.00 39.45 40.42 39.66 38.88 37.59 38.65 36.96 36.35 35.82 37.06 38.05 36.66 37.67 37.31
MSLP
1018.09 1018.09 1018.12 1018.01 1017.91 1017.78 1017.66 1017.38 1017.22 1016.70 1015.52 1015.31 1015.18 1015.11 1015.03 1015.00 1015.07 1014.75 1014.52 1014.50 1014.34 1013.95 1014.05 1014.23 1014.81 1014.66 1014.47 1015.00
1018.05 1018.06 1018.00 1017.80 1017.72 1017.73 1017.48 1017.26 1016.99 1016.17 1015.23 1015.39 1015.25 1015.18 1015.05 1015.07 1015.12 1014.94 1014.83 1014.90 1014.66 1014.54 1014.48 1014.92 1014.70 1014.33 1014.46 1014.45
1018.14 1018.04 1017.80 1017.65 1017.56 1017.39 1017.20 1017.02 1016.58 1015.61 1015.18 1015.30 1015.28 1015.34 1015.20 1015.02 1015.08 1015.09 1015.09 1015.08 1014.90 1014.91 1014.98 1014.27 1014.04 1014.05 1013.33 1014.32
1018.09 1017.84 1017.64 1017.55 1017.24 1016.97 1016.77 1016.51 1016.10 1015.60 1015.41 1015.21 1015.43 1015.49 1015.37 1015.25 1015.10 1015.10 1014.89 1014.77 1014.72 1014.51 1014.55 1014.09 1013.33 1013.45 1013.74 1014.53
1017.74 1017.60 1017.24 1016.99 1016.91 1016.64 1015.80 1015.95 1015.71 1015.34 1015.23 1015.46 1015.56 1015.40 1015.51 1015.28 1015.14 1014.89 1014.48 1014.89 1014.39 1013.88 1014.27 1014.48 1014.50 1014.46 1014.49 1014.73
1017.55 1017.49 1017.01 1016.12 1016.18 1016.25 1015.99 1015.99 1015.75 1015.49 1015.53 1015.52 1015.35 1015.44 1015.55 1015.32 1015.04 1014.72 1015.05 1014.93 1014.37 1014.95 1015.07 1015.17 1015.02 1015.00 1014.87 1014.97
1017.42 1017.27 1016.57 1016.35 1016.32 1016.06 1015.34 1015.91 1015.75 1015.45 1015.56 1015.64 1015.77 1015.92 1015.86 1015.69 1015.27 1015.15 1015.04 1014.74 1015.30 1015.62 1015.59 1015.60 1015.43 1015.33 1015.35 1015.54
1017.63 1016.79 1016.49 1016.56 1016.41 1016.12 1015.07 1015.90 1015.61 1015.63 1015.73 1015.76 1016.23 1016.73 1016.72 1016.40 1015.80 1015.48 1015.61 1015.43 1015.93 1015.96 1015.97 1015.85 1016.04 1015.76 1016.34 1016.49
1016.59 1016.52 1016.71 1016.53 1016.36 1015.98 1014.82 1016.03 1015.59 1015.73 1015.81 1015.91 1016.54 1016.93 1017.39 1016.42 1016.14 1016.07 1016.22 1015.96 1016.21 1016.35 1016.34 1016.43 1016.76 1016.79 1017.17 1017.02
1016.52 1016.88 1016.69 1016.45 1016.06 1015.56 1015.00 1015.71 1015.72 1015.66 1015.76 1016.26 1016.79 1016.97 1017.04 1017.12 1017.39 1016.86 1016.63 1016.62 1017.16 1017.09 1017.01 1017.40 1017.45 1017.66 1017.43 1017.18
1016.72 1016.87 1016.59 1015.99 1015.38 1014.91 1016.02 1015.95 1015.90 1016.01 1016.13 1016.49 1016.96 1017.28 1017.46 1017.58 1017.64 1017.25 1016.74 1017.14 1017.32 1017.78 1017.95 1017.58 1017.79 1017.52 1017.05 1015.89
1017.16 1016.87 1016.25 1015.53 1015.16 1015.70 1015.87 1016.40 1016.40 1016.49 1016.37 1017.02 1017.50 1017.80 1017.98 1018.16 1018.82 1018.42 1017.60 1017.09 1017.75 1018.16 1018.52 1018.11 1017.74 1017.65 1017.34 1016.16
1017.26 1016.84 1015.92 1015.22 1015.51 1016.21 1016.70 1016.71 1016.86 1016.67 1016.90 1017.41 1017.71 1017.96 1018.45 1018.83 1019.44 1019.45 1018.67 1017.95 1018.17 1018.87 1019.00 1018.88 1018.77 1018.20 1017.68 1017.67
1017.33 1016.46 1015.69 1015.94 1016.83 1017.57 1017.71 1017.61 1016.94 1017.14 1016.88 1017.33 1017.81 1018.10 1018.65 1019.85 1020.23 1020.49 1020.07 1019.23 1018.80 1019.12 1019.35 1019.45 1019.38 1018.83 1018.67 1018.06
1017.10 1016.12 1015.83 1016.93 1017.89 1018.59 1018.68 1018.35 1017.71 1017.57 1017.56 1017.71 1018.08 1018.44 1019.27 1020.66 1020.95 1021.08 1020.80 1020.17 1019.63 1019.57 1019.61 1019.22 1018.80 1019.47 1018.78 1018.49
1016.75 1017.14 1017.09 1018.15 1018.99 1019.08 1019.17 1019.01 1018.74 1018.48 1018.31 1018.53 1018.63 1019.21 1019.89 1020.90 1021.78 1021.66 1021.17 1021.08 1020.15 1018.98 1018.66 1019.73 1020.10 1019.72 1018.96 1018.45
1016.51 1017.08 1018.33 1018.84 1019.38 1019.50 1019.63 1019.50 1019.35 1019.35 1019.31 1019.13 1019.50 1020.01 1020.83 1022.11 1022.39 1022.20 1021.87 1021.53 1020.45 1019.17 1019.14 1020.19 1020.35 1019.87 1019.45 1019.22
Wind_Speed
4 6 9 7 8 9 9 9 7 4 2 5 3 4 4 3 3 2 3 5 3 1 2 5 2 2 3 7
7 9 8 7 8 9 9 8 5 4 4 1 3 2 1 3 3 4 5 3 5 6 2 4 3 2 3 6
10 8 6 7 9 9 7 6 4 5 6 1 2 3 3 2 2 3 4 4 2 3 4 3 4 3 6 4
8 5 6 6 3 6 4 3 2 5 3 4 2 1 2 3 1 3 3 1 2 3 3 5 7 3 5 3
4 3 5 4 5 5 1 4 4 4 4 3 1 4 3 2 1 2 2 2 6 5 1 1 1 2 3 5
1 2 4 3 3 4 7 3 2 3 2 1 2 6 4 3 2 2 2 5 4 2 5 4 4 3 5 5
2 3 1 2 3 3 2 3 2 3 3 1 3 6 5 0 1 3 1 4 5 5 4 5 5 4 7 3
2 2 2 2 3 3 4 4 2 3 2 2 3 3 5 3 2 2 2 1 2 6 5 5 4 6 2 1
5 2 3 3 2 4 6 3 3 2 2 0 3 4 3 2 1 3 4 5 3 5 6 1 2 4 1 3
2 3 3 2 4 5 2 4 2 3 4 2 2 3 2 5 2 1 0 2 1 2 2 3 2 3 3 1
3 3 2 3 5 5 1 4 2 2 1 2 2 5 3 3 2 5 7 4 3 2 2 4 4 4 6 4
3 3 3 5 5 2 1 2 2 3 3 0 2 1 1 4 3 3 2 5 6 2 3 2 2 1 4 5
5 3 5 5 3 2 2 4 3 4 4 3 2 3 0 1 1 2 4 3 4 3 4 2 4 5 5 4
6 3 4 1 1 2 0 2 6 3 3 4 4 4 4 2 3 1 3 2 3 1 3 1 4 4 4 3
4 3 4 2 2 2 1 2 2 3 2 3 3 2 2 3 0 2 2 0 3 4 2 6 4 5 4 2
3 1 2 2 1 2 1 1 1 1 1 2 2 2 0 3 2 0 1 2 3 4 0 3 3 3 3 6
3 3 3 3 2 1 1 1 2 2 0 2 2 1 2 2 1 0 0 2 3 4 6 4 3 6 5 4
Wind_Direction
286 284 267 274 283 290 291 298 304 281 222 78 349 347 7 33 3 33 97 53 50 305 116 123 87 112 164 137
297 269 268 284 290 285 292 291 295 263 74 45 347 33 37 93 77 62 78 54 72 90 18 122 140 208 218 201
269 266 286 294 285 282 279 274 238 264 120 125 144 21 4 75 91 86 70 87 72 67 164 208 203 199 273 230
259 280 301 278 294 282 207 208 250 202 165 112 47 357 55 52 90 147 157 153 122 166 166 223 277 246 249 215
255 309 273 193 179 148 134 22 73 71 106 91 212 55 8 166 176 212 216 54 234 233 186 162 134 187 233 261
250 270 252 262 25 9 110 45 74 85 66 9 135 50 335 227 216 195 204 206 247 108 124 152 176 214 255 255
180 207 275 84 335 275 98 77 33 76 85 240 69 27 340 53 70 186 215 274 83 143 185 176 216 226 264 259
194 139 130 17 311 290 198 127 141 97 125 144 99 1 11 331 155 225 178 309 96 199 203 225 252 267 145 169
111 177 45 314 271 244 215 117 115 56 92 331 102 62 22 248 229 146 231 98 170 176 216 321 229 36 4 303
158 40 310 265 234 230 189 138 118 157 171 85 79 339 56 52 31 164 19 84 43 332 26 96 46 120 213 201
78 339 275 219 212 258 132 143 140 176 183 118 103 19 28 52 296 215 194 162 158 103 335 219 184 236 253 233
342 303 230 216 241 77 172 108 131 123 226 119 101 64 171 186 83 272 232 228 186 200 14 344 357 54 296 308
343 270 236 215 2 104 87 167 147 210 177 185 279 201 331 131 56 341 277 226 154 130 42 359 308 125 227 19
322 240 239 70 106 52 119 233 224 241 218 179 219 216 187 104 144 334 311 109 229 157 110 231 75 285 97 220
258 219 246 100 127 89 291 264 220 178 210 196 238 205 102 121 295 94 336 260 285 113 211 203 189 159 203 206
183 4 150 80 35 130 105 116 49 81 220 170 183 214 322 40 33 289 294 38 310 247 306 106 344 296 271 242
218 142 120 101 53 136 47 130 122 339 169 165 222 186 148 66 67 220 301 155 190 264 181 178 177 234 203 241